DW0275 Weather Reports


time (UTC)temp
C
wind
direction
speed
KPH
gust
KPH
rain 1hr
cm
rain 24hr
cm
rain mn
cm
humidity
%
barometer
mb
20260504050331 22 340 1.6 4.8 0.00 0.48 0.00 90 1015.6
20260504045846 22 348 0.0 3.2 0.00 0.48 0.00 91 1015.7
20260504045340 22 348 1.6 3.2 0.00 0.48 0.00 91 1015.7
20260504044829 22 345 0.0 3.2 0.00 0.48 0.00 91 1015.7
20260504044323 22 345 1.6 3.2 0.00 0.48 0.00 91 1015.6
20260504043847 22 348 1.6 1.6 0.00 0.48 0.00 91 1015.6
20260504043320 22 338 1.6 3.2 0.00 0.48 0.00 90 1015.5
20260504042821 22 334 0.0 4.8 0.00 0.48 0.00 91 1015.5
20260504042342 22 43 3.2 4.8 0.00 0.48 0.00 90 1015.4
20260504041822 22 28 3.2 4.8 0.00 0.48 0.00 91 1015.6
20260504041337 22 53 3.2 6.4 0.00 0.48 0.00 90 1015.7
20260504040850 22 323 3.2 8.0 0.00 0.48 0.00 91 1015.8
20260504040322 22 51 3.2 4.8 0.00 0.48 0.00 91 1015.6
20260504035902 22 91 1.6 6.4 0.00 0.48 0.00 91 1015.8
20260504035322 22 7 1.6 8.0 0.00 0.48 0.48 90 1016.0
20260504034825 22 337 3.2 8.0 0.00 0.48 0.48 90 1016.1
20260504034346 22 340 3.2 6.4 0.00 0.48 0.48 90 1016.2
20260504033836 22 330 3.2 8.0 0.00 0.48 0.48 90 1016.1
20260504033350 22 335 3.2 8.0 0.00 0.48 0.48 90 1016.0
20260504032837 22 345 1.6 3.2 0.00 0.48 0.48 90 1016.0
20260504032330 22 344 1.6 4.8 0.00 0.48 0.48 90 1016.1
20260504031843 22 356 1.6 4.8 0.00 0.48 0.48 90 1016.0
20260504031336 22 327 0.0 3.2 0.00 0.48 0.48 90 1016.1
20260504030821 22 326 0.0 4.8 0.00 0.48 0.48 90 1016.2
20260504030330 22 22 0.0 6.4 0.00 0.48 0.48 90 1016.2
20260504025842 22 5 3.2 6.4 0.00 0.48 0.48 90 1016.1
20260504025343 22 18 1.6 6.4 0.00 0.48 0.48 90 1016.3
20260504024829 22 21 3.2 6.4 0.00 0.48 0.48 90 1016.1
20260504024323 22 37 1.6 8.0 0.00 0.48 0.48 90 1016.1
20260504023835 22 39 3.2 8.0 0.00 0.48 0.48 89 1016.2
20260504023327 22 23 1.6 4.8 0.00 0.48 0.48 89 1016.2
20260504022848 22 338 3.2 4.8 0.00 0.48 0.48 89 1016.3
20260504022329 22 7 1.6 4.8 0.00 0.48 0.48 89 1016.2
20260504021832 22 36 3.2 6.4 0.00 0.48 0.48 89 1016.3
20260504021338 22 25 3.2 8.0 0.00 0.48 0.48 89 1016.3
20260504020832 22 33 4.8 8.0 0.00 0.48 0.48 89 1016.3
20260504020407 22 35 3.2 6.4 0.00 0.48 0.48 89 1016.2
20260504015838 22 47 3.2 8.0 0.00 0.48 0.48 89 1016.4
20260504014826 22 353 1.6 8.0 0.00 0.48 0.48 90 1016.4
20260504014341 22 39 4.8 8.0 0.00 0.48 0.48 90 1016.3
20260504013841 22 27 3.2 8.0 0.00 0.48 0.48 90 1016.2
20260504013408 22 29 3.2 6.4 0.00 0.48 0.48 90 1016.1
20260504012855 22 45 3.2 6.4 0.00 0.48 0.48 90 1016.2
20260504012329 22 46 3.2 6.4 0.00 0.48 0.48 90 1016.1
20260504011820 22 99 1.6 6.4 0.00 0.48 0.48 90 1016.1
20260504011324 22 44 1.6 6.4 0.00 0.48 0.48 90 1016.2
20260504010845 22 25 3.2 8.0 0.00 0.48 0.48 90 1016.2
20260504010337 22 38 3.2 8.0 0.00 0.48 0.48 90 1016.1
20260504005827 22 51 3.2 8.0 0.00 0.48 0.48 90 1016.0
20260504005322 22 44 1.6 6.4 0.00 0.48 0.48 90 1016.1
20260504004835 22 49 3.2 6.4 0.00 0.48 0.48 90 1016.0
20260504004329 22 19 1.6 8.0 0.00 0.48 0.48 90 1015.9
20260504003841 22 45 3.2 9.7 0.00 0.48 0.48 90 1015.8
20260504003331 22 48 4.8 9.7 0.00 0.48 0.48 89 1015.8
20260504002823 22 8 4.8 8.0 0.00 0.48 0.48 89 1015.9
20260504002346 22 26 3.2 9.7 0.00 0.48 0.48 89 1015.7
20260504001831 22 352 4.8 9.7 0.00 0.48 0.48 89 1015.5
20260504001324 22 7 4.8 9.7 0.00 0.48 0.48 89 1015.6
20260504000838 22 337 3.2 9.7 0.00 0.48 0.48 88 1015.6
20260504000329 22 1 4.8 9.7 0.00 0.48 0.48 88 1015.6
20260503235822 22 15 4.8 12.9 0.00 0.48 0.48 88 1015.6
20260503235325 22 31 3.2 11.3 0.00 0.48 0.48 87 1015.5
20260503234848 23 25 3.2 9.7 0.00 0.48 0.48 87 1015.5
20260503234322 23 18 6.4 12.9 0.00 0.48 0.48 87 1015.5
20260503233829 23 27 8.0 12.9 0.00 0.48 0.48 86 1015.4
20260503233352 23 90 6.4 11.3 0.00 0.48 0.48 86 1015.4
20260503232845 23 44 8.0 11.3 0.00 0.48 0.48 86 1015.4
20260503232346 23 5 4.8 9.7 0.00 0.48 0.48 87 1015.4
20260503231829 23 317 4.8 11.3 0.00 0.48 0.48 86 1015.4
20260503231338 23 40 4.8 12.9 0.00 0.48 0.48 87 1015.3
20260503230829 23 46 6.4 14.5 0.00 0.48 0.48 87 1015.3
20260503230320 23 32 6.4 16.1 0.00 0.48 0.48 87 1015.3
20260503225843 23 30 6.4 16.1 0.00 0.48 0.48 87 1015.3
20260503225327 23 20 6.4 14.5 0.00 0.48 0.48 87 1015.4
20260503224821 23 51 4.8 14.5 0.00 0.48 0.48 87 1015.2
20260503224330 23 54 6.4 11.3 0.00 0.48 0.48 87 1015.3
20260503223822 23 29 4.8 11.3 0.00 0.48 0.48 87 1015.3
20260503223335 22 70 4.8 12.9 0.00 0.48 0.48 87 1015.2
20260503222901 22 67 4.8 12.9 0.00 0.48 0.48 87 1015.2
20260503222326 22 43 4.8 11.3 0.00 0.48 0.48 88 1015.2
20260503221847 22 47 6.4 11.3 0.00 0.48 0.48 88 1015.1
20260503221359 22 58 6.4 16.1 0.00 0.48 0.48 88 1015.3
20260503220850 22 40 8.0 16.1 0.00 0.48 0.48 87 1015.4
20260503220322 22 347 8.0 12.9 0.00 0.48 0.48 88 1015.5
20260503215829 22 52 4.8 16.1 0.00 0.48 0.48 88 1015.5
20260503215347 22 31 4.8 16.1 0.00 0.48 0.48 88 1015.5
20260503214838 23 352 6.4 12.9 0.03 0.48 0.48 89 1015.4
20260503214329 23 18 4.8 12.9 0.05 0.48 0.48 89 1015.3
20260503213842 23 14 6.4 12.9 0.08 0.48 0.48 89 1015.4
20260503213328 23 4 8.0 14.5 0.10 0.48 0.48 89 1015.4
20260503212819 23 359 6.4 16.1 0.15 0.48 0.48 90 1015.2
20260503212321 23 32 9.7 16.1 0.15 0.48 0.48 90 1015.3
20260503211827 23 337 6.4 16.1 0.15 0.48 0.48 90 1015.2
20260503211320 23 29 8.0 14.5 0.15 0.48 0.48 90 1015.3
20260503210829 23 21 11.3 14.5 0.15 0.48 0.48 90 1015.2
20260503210343 23 24 8.0 14.5 0.15 0.48 0.48 90 1015.4
20260503205835 23 49 9.7 14.5 0.15 0.48 0.48 90 1015.4
20260503205330 23 27 6.4 12.9 0.15 0.48 0.48 90 1015.7
20260503204845 23 27 3.2 9.7 0.13 0.46 0.46 89 1015.8
20260503204354 23 39 4.8 11.3 0.08 0.41 0.41 89 1015.9
20260503203857 23 337 4.8 11.3 0.08 0.41 0.41 89 1015.9
20260503203329 23 328 4.8 16.1 0.05 0.38 0.38 88 1015.9
20260503202841 23 340 6.4 12.9 0.00 0.33 0.33 88 1015.9
20260503202327 23 347 4.8 16.1 0.00 0.33 0.33 88 1015.9
20260503201827 23 329 8.0 16.1 0.00 0.33 0.33 88 1015.9
20260503201321 23 338 6.4 14.5 0.00 0.33 0.33 88 1016.0
20260503200835 23 359 8.0 14.5 0.00 0.33 0.33 88 1015.9
20260503200329 23 58 4.8 11.3 0.00 0.33 0.33 88 1015.8
20260503195842 23 20 3.2 9.7 0.00 0.33 0.33 88 1015.8
20260503195353 23 47 4.8 9.7 0.03 0.33 0.33 88 1015.8
20260503194908 23 338 3.2 12.9 0.03 0.33 0.33 88 1015.7
20260503194321 23 56 8.0 12.9 0.03 0.33 0.33 88 1015.5
20260503193844 24 29 6.4 11.3 0.03 0.33 0.33 88 1015.6
20260503193338 24 30 3.2 8.0 0.03 0.33 0.33 88 1015.6
20260503192827 24 54 1.6 9.7 0.03 0.33 0.33 89 1015.5
20260503192342 24 354 4.8 12.9 0.03 0.33 0.33 89 1015.3
20260503191846 24 333 6.4 12.9 0.03 0.33 0.33 88 1015.5
20260503191341 24 19 8.0 12.9 0.05 0.33 0.33 88 1015.8
20260503190836 24 327 6.4 12.9 0.05 0.33 0.33 88 1015.9
20260503190331 24 37 8.0 12.9 0.05 0.33 0.33 88 1016.0
20260503185818 24 319 4.8 11.3 0.05 0.33 0.33 88 1016.1
20260503185332 24 330 6.4 11.3 0.03 0.30 0.30 87 1016.2
20260503184835 24 340 4.8 11.3 0.03 0.30 0.30 87 1016.3
20260503184327 24 355 6.4 12.9 0.03 0.30 0.30 87 1016.4
20260503183823 24 315 6.4 12.9 0.05 0.30 0.30 87 1016.4
20260503183333 24 23 3.2 8.0 0.08 0.30 0.30 87 1016.4
20260503182828 24 29 3.2 6.4 0.08 0.30 0.30 87 1016.5
20260503182342 24 358 3.2 6.4 0.10 0.30 0.30 87 1016.5
20260503181827 24 43 0.0 6.4 0.10 0.30 0.30 87 1016.7
20260503181340 24 23 3.2 8.0 0.08 0.28 0.28 87 1016.8
20260503180829 24 22 3.2 9.7 0.08 0.28 0.28 86 1016.9
20260503180321 24 300 0.0 4.8 0.08 0.28 0.28 87 1017.1
20260503175823 24 352 1.6 4.8 0.08 0.28 0.28 86 1017.0
20260503175343 24 14 1.6 8.0 0.08 0.28 0.28 86 1017.0
20260503174838 24 22 4.8 8.0 0.08 0.28 0.28 85 1016.9
20260503174328 25 36 3.2 6.4 0.08 0.28 0.28 85 1016.9
20260503173822 25 31 1.6 6.4 0.05 0.25 0.25 85 1017.0
20260503173344 25 354 0.0 9.7 0.03 0.23 0.23 84 1017.0
20260503172819 25 39 4.8 9.7 0.03 0.23 0.23 83 1017.0
20260503172333 25 352 4.8 8.0 0.00 0.20 0.20 83 1016.9
20260503171852 25 353 3.2 6.4 0.00 0.20 0.20 83 1017.1
20260503171325 25 347 1.6 6.4 0.00 0.20 0.20 83 1017.0
20260503170819 25 359 1.6 6.4 0.00 0.20 0.20 82 1017.0
20260503170320 25 327 3.2 9.7 0.00 0.20 0.20 82 1017.2
20260503150830 25 75 4.8 9.7 0.00 0.20 0.20 85 1017.3
20260503150325 25 326 3.2 9.7 0.00 0.20 0.20 85 1017.3
20260503131409 22 48 1.6 8.0 0.08 0.18 0.18 89 1016.5
20260503130821 22 354 1.6 9.7 0.08 0.18 0.18 88 1016.5
20260503130321 22 6 4.8 9.7 0.05 0.15 0.15 88 1016.5
20260503110330 22 285 0.0 1.6 0.00 0.00 0.00 85 1015.3
20260503090342 23 54 0.0 0.0 0.00 0.00 0.00 83 1014.2
20260503081347 23 276 0.0 1.6 0.00 0.00 0.00 82 1014.4
20260503080842 23 297 0.0 0.0 0.00 0.00 0.00 82 1014.5
20260503080336 23 297 0.0 1.6 0.00 0.00 0.00 82 1014.3
20260503072832 23 278 0.0 3.2 0.00 0.00 0.00 82 1014.0
20260503072344 23 19 0.0 3.2 0.00 0.00 0.00 81 1014.0
20260503071848 23 349 1.6 3.2 0.00 0.00 0.00 81 1014.0
20260503071332 24 37 1.6 3.2 0.00 0.00 0.00 81 1014.2
20260503070823 24 76 0.0 6.4 0.00 0.00 0.00 81 1014.4
20260503070334 24 351 3.2 6.4 0.00 0.00 0.00 81 1014.3
20260503054857 24 309 0.0 0.0 0.00 0.00 0.00 80 1013.9
20260503054329 24 309 0.0 0.0 0.00 0.00 0.00 80 1014.0
20260503053904 24 157 0.0 0.0 0.00 0.00 0.00 80 1013.7
20260503053328 24 145 0.0 1.6 0.00 0.00 0.00 80 1013.9
20260503052843 24 163 0.0 3.2 0.00 0.00 0.00 80 1013.6
20260503052330 24 127 1.6 3.2 0.00 0.00 0.00 80 1014.2